www.pogodaiklimat.ru

Погода и климат >> Архив погоды >> Гана >> Akuse


ПОГОДА в Akuse

  • Прогноз погоды в Akuse
  • Монитор погоды в Akuse
  • Климат города

АРХИВ ПОГОДЫ в Akuse

Время (UTC), дата Ветер
(напр.,м/с)
 
Видим.   Явления Облачность Т
(С)
Тd
(С)
f
(%)
Тe
(С)
Тes
(С)
Комфортность P
(гПа)
Po
(гПа)
Тmin
(С)
Tmax
(С)
R
(мм)
R24
(мм)
S
(см)
09 9.07 штиль 0 14 км ясно +27.0 +24.9 88 +39 +53 опасность
солнечного
удара
1017.0 1017.0
12 9.07 штиль 0 14 км в посл. час дождь 6/5 450 м
[Cu med, cong Ac trans]
+30.7 +25.0 72 +44 +56 опасность
перегрева
1015.1 1015.0 0.0
18 9.07 ЮВ 1 14 км в посл. час гроза 8/1 400 м
[Cb cap Ac trans Ci sp]
+27.2 +24.1 83 +38 +38 очень
душно
1013.6 1014.0 +32.0 0.0
03 10.07 штиль 0 12 км 1/0
[Ci sp]
+24.0 +23.0 94 +32 +32 очень
душно
1014.4 1014.0
06 10.07 штиль 0 12 км 1/0
[Ci sp]
+23.5 +22.5 94 +31 +31 очень
душно
1015.7 1016.0 +23.0 0.0
09 10.07 СЗ 1 12 км 8/8 360 м
[Cu Sc]
+28.0 +24.5 81 +39 +42 очень
душно
1016.3 1016.0
12 10.07 СЗ 1 12 км 8/8 480 м
[Cu med, cong]
+31.5 +24.9 68 +45 +50 опасность
перегрева
1016.4 1016.0
15 10.07 штиль 0 14 км 8/8 480 м
[Cu med, cong]
+32.0 +25.5 69 +47 +50 опасность
перегрева
1013.3 1013.0
06 11.07 штиль 0 14 км 3/0
[Ac trans]
+24.0 +23.2 95 +32 +32 очень
душно
1015.2 1015.0 +23.5
12 11.07 ЮЗ 2 16 км 8/8 450 м
[Cu med, cong]
+31.0 +25.1 71 +45 +49 опасность
перегрева
1015.8 1016.0
15 11.07 З 2 16 км 6/6 360 м
[Cu Sc Ci sp]
+33.3 +24.6 60 +46 +51 опасность
перегрева
1012.7 1013.0
21 11.07 штиль 0 12 км зарница {гроза} 1/1 900 м
[Cb cap]
+26.0 +24.3 90 +36 +36 очень
душно
1015.8 1016.0
06 12.07 штиль 0 12 км 6/4 360 м
[Sc Ci sp]
+24.5 +23.2 92 +33 +33 очень
душно
1015.3 1015.0 +24.0
21 12.07 ЮЗ 1 12 км {гроза, дождь} 8/8 360 м
[Sc]
+25.8 +22.9 84 +34 +34 очень
душно
1015.6 1016.0
06 13.07 штиль 0 14 км 9/4 360 м
[Sc Ac trans]
+24.1 +22.7 92 +32 +32 очень
душно
1012.8 1013.0 +24.0 0.2
15 13.07 ЮЗ 1 15 км 8/8 480 м
[Cu med, cong]
+32.0 +24.7 65 +45 +48 опасность
перегрева
1012.8 1013.0
18 13.07 Ю 1 16 км гроза без осадков 8/4 360 м
[Cb cap Ac trans Ci sp]
+28.0 +23.4 76 +38 +38 очень
душно
1012.6 1013.0 +32.0
03 14.07 ЮЗ 1 10 км 9/9 360 м
[Sc]
+25.4 +23.1 87 +34 +34 очень
душно
1013.9 1014.0
12 14.07 ЮЗ 1 14 км 8/6 480 м
[Cu med, cong Ac trans]
+30.5 +23.9 68 +42 +49 опасность
перегрева
1015.1 1015.0
15 14.07 ЮВ 1 14 км 8/6 480 м
[Cu med, cong Ac trans]
+31.0 +23.6 65 +42 +46 опасность
перегрева
1012.2 1012.0
18 14.07 Ю 1 14 км 6/3 480 м
[Cb cap Ac trans]
+28.0 +23.4 76 +38 +38 очень
душно
1012.4 1012.0 +32.0
21 14.07 ЮЗ 1 12 км 6/6 360 м
[Sc]
+26.0 +23.6 87 +35 +35 очень
душно
1014.7 1015.0
00 15.07 ЮЗ 2 12 км 3/3 360 м
[Sc]
+25.2 +23.2 89 +34 +34 очень
душно
1014.4 1014.0
03 15.07 ЮЗ 2 12 км 9/9 360 м
[Sc]
+25.0 +23.3 90 +33 +33 очень
душно
1013.3 1013.0
06 15.07 ЮЗ 2 14 км 8/8 360 м
[Sc]
+24.8 +22.5 87 +32 +32 очень
душно
1013.4 1013.0 +24.5
12 15.07 ЮВ 2 16 км 9/9 360 м
[Cu Sc]
+29.5 +23.5 70 +40 +42 очень
душно
1015.3 1015.0
18 15.07 ЮЗ 2 16 км 8/5 360 м
[Sc Cs]
+28.1 +22.6 72 +37 +37 очень
душно
1012.9 1013.0 +30.0
21 15.07 штиль 0 12 км ясно +25.5 +23.1 87 +34 +34 очень
душно
1014.9 1015.0
00 16.07 ЮЗ 1 12 км ясно +24.8 +22.7 88 +33 +33 очень
душно
1015.7 1016.0

 

Местоположение метеостанции Akuse (Гана): широта 6.10 долгота 0.12 высота над уровнем моря 19 м.

В архиве по умолчанию представлена погода в Akuse за последнюю неделю. Архивные данные за месяц целиком и за предыдущие месяцы, начиная с января 2011 года, Вы можете получить, выбрав интересующий диапазон дат из раскрывающегося списка и нажав кнопку "Ввод!".


*Определитесь, кто Вы:
робот инопланетянин человек

Внимание! Время в таблицах - всемирное. Для получения местного времени необходимо прибавить поправку, которая в Akuse равна 1 ч.

Смотрите также архив погоды в соседних городах и на ближайших метеорологических станциях:

Погода в Koforidua (Гана) (41 км)
Погода в Tema (Гана) (55 км)
Погода в Accra (Гана) (64 км)
Погода в Ada (Гана) (67 км)
Погода в Ho (Гана) (68 км)
Погода в Akatsi (Гана) (75 км)
Погода в Abetifi (Гана) (115 км)
Погода в Akim Oda (Гана) (123 км)
Погода в Lome (Того) (125 км)
Погода в Tabligbo (Того) (162 км)

Пояснения к столбцам:

Ветер - указаны скорость ветра в м/с - средняя за 10 мин, порывы в срок и между сроками (в фигурных скобках) и направление, откуда дует ветер: С - северный, СВ - северо-восточный, В - восточный, ЮВ - юго-восточный, Ю - южный, ЮЗ - юго-западный, З - западный, СЗ - северо-западный.
Видимость - горизонтальная дальность видимости в метрах или километрах. При видимости от 1 до 10 км при отсутствии осадков обычно наблюдается дымка, при ухудшении видимости до 1 км и менее - туман. В сухую погоду видимость может ухудшаться дымом, пылью или мглою.
Явления - указаны атмосферные явления, наблюдавшиеся в срок или в последний час перед сроком; фигурными скобками обозначены явления, наблюдавшиеся между сроками (за 1-3 часа до срока); квадратными скобками обозначены град или гололедные отложения с указанием их диаметра в мм.
Облачность - указаны через наклонную черту общая и нижняя облачность в баллах и высота нижней границы облаков в метрах; квадратными скобками обозначены формы облаков: Ci - перистые, Cs - перисто-слоистые, Cc - перисто-кучевые, Ac - высококучевые, As - высокослоистые, Sc - слоисто-кучевые, Ns - слоисто-дождевые, Cu - кучевые, Cb - кучево-дождевые. Подробнее классификацию облаков см. в Атласе облаков (PDF).
T - Температура воздуха - температура, измеренная на высоте 2 м над землей.
Td - Температура точки росы - температура, при понижении до которой содержащийся в воздухе водяной пар достигнет насыщения.
f - Относительная влажность воздуха - влажноcть воздуха, измеренная на высоте 2 м над землей.
Te - Эффективная температура - температура, которую ощущает одетый по сезону человек в тени. Характеристика душности погоды. При расчете учитывается влияние влажности воздуха и скорости ветра на теплоощущения человека.
Tes - Эффективная температура на солнце - температура, которую ощущает человек, с поправкой на солнечный нагрев. Характеристика знойности погоды. Зависит от высоты солнца над горизонтом, облачности и скорости ветра. Ночью, в пасмурную погоду, а также при ветре 12 м/с и более поправка равна нулю.
P - Атмосферное давление - приведенное к уровню моря атмосферное давление.
Po - Атмосферное давление - измеренное на уровне метеостанции атмосферное давление.
Tmin - Минимальная температура - минимум температуры воздуха на высоте 2 м над землей.
Tmax - Максимальная температура - максимум температуры воздуха на высоте 2 м над землей.
R - Количество осадков - Количество выпавших осадков за период времени, мм. При наведении курсора мыши на число - период времени, за который выпало указанное количество осадков.
R24 - Количество осадков - Количество выпавших осадков за 24 часа, мм.
S - Снежный покров - Высота снежного покрова, см. При наведении курсора мыши на число - состояние снежного покрова и степень покрытия местности в баллах.